Wind_Speed
3 5 0 3 4 3 2 2 4 4 0 3 7 13 15 10 8 10 10 10 12 14 18 26 28 28 24 24 25 24 22 20 20 19 16 16 16 15 14 12 10 8 7 6
6 1 1 1 1 0 1 3 5 5 1 4 7 18 15 8 9 14 16 13 14 9 7 19 28 28 28 28 29 27 26 23 23 22 19 16 12 14 15 14 13 11 10 8
3 1 1 2 3 3 2 2 2 4 6 2 8 7 4 1 3 6 9 9 9 14 13 12 24 32 31 32 33 32 30 27 26 24 21 18 17 16 15 17 15 14 12 11
1 2 1 2 1 3 3 0 2 4 5 3 5 5 6 4 6 7 9 11 14 12 10 14 21 28 36 39 36 34 32 30 28 26 26 24 23 22 20 17 15 14 14 13
2 1 1 1 1 1 4 1 1 1 2 3 4 2 8 4 5 5 9 12 13 13 13 14 22 33 40 39 39 37 35 33 30 29 30 28 26 23 20 16 15 15 15 15
0 1 1 1 2 1 2 1 5 4 2 2 3 3 6 2 2 5 3 4 9 11 11 17 26 30 33 37 40 39 38 36 33 32 32 31 29 25 22 20 19 18 16 16
2 1 1 1 1 2 5 5 4 5 4 4 2 1 10 5 6 5 7 9 7 8 9 11 14 23 30 36 39 41 41 41 37 35 35 34 32 27 25 23 21 20 19 18
2 4 3 1 1 3 2 4 4 3 2 5 2 6 5 5 5 6 6 7 7 6 6 9 16 24 29 35 39 41 43 45 42 39 38 36 33 31 28 24 23 22 21 18
4 3 1 3 1 2 1 1 3 5 2 2 4 8 10 4 4 3 7 6 7 7 6 9 17 26 31 34 39 43 44 46 45 42 40 38 35 33 31 27 24 23 21 19
4 1 2 1 2 4 1 3 3 3 1 5 5 6 5 3 4 4 3 5 8 7 7 8 13 23 31 35 37 38 42 46 47 45 42 40 37 35 33 28 26 25 22 20
4 3 1 0 5 8 2 1 5 3 3 4 3 6 7 7 3 3 5 6 7 8 8 8 12 19 24 28 33 37 38 41 44 45 42 40 38 36 33 31 28 26 24 22
5 4 4 6 1 2 3 5 6 5 4 1 4 7 5 8 7 5 8 8 7 7 9 8 12 13 17 25 30 35 36 39 44 45 43 41 38 35 33 33 31 27 26 24
6 1 2 4 2 2 4 5 5 5 3 7 5 6 1 4 6 7 8 9 9 8 8 8 10 11 16 21 26 31 34 38 38 41 42 40 39 36 35 34 32 29 27 25
5 4 7 7 5 5 4 5 6 6 4 5 9 19 8 11 9 9 9 9 10 9 8 7 8 10 13 16 22 28 32 35 35 37 40 41 40 39 36 34 33 30 28 27
3 5 5 5 4 4 4 5 9 10 10 10 18 14 15 12 9 8 8 8 9 9 8 7 7 8 15 12 14 21 26 30 33 35 37 41 41 39 36 34 32 31 29 28
2 3 2 5 4 9 6 20 14 15 13 12 19 22 29 13 7 7 10 9 10 10 8 7 7 10 13 12 11 15 21 26 27 31 36 38 38 38 37 34 32 31 30 29
6 5 3 6 4 2 7 21 17 7 8 11 13 23 20 14 10 10 10 8 11 9 7 7 8 10 14 13 11 13 17 20 25 29 32 34 36 36 36 35 33 32 32 30
7 6 3 3 2 5 7 1 6 13 17 13 13 18 18 15 10 8 9 8 9 7 7 7 7 10 11 11 10 8 10 15 21 25 28 29 32 35 35 34 35 34 33 32
3 5 0 3 5 7 9 7 7 8 11 7 17 19 12 2 3 9 10 9 8 6 7 9 7 7 7 8 8 5 6 11 17 23 25 27 29 32 33 34 35 35 33 33
6 4 4 3 4 7 7 3 3 5 10 10 7 10 4 4 2 5 2 5 8 9 7 5 3 5 7 7 6 4 4 9 17 21 24 23 25 29 32 34 34 34 33 34
4 1 10 8 6 8 9 4 3 4 8 3 5 6 7 6 6 4 4 5 6 9 8 5 4 4 6 7 6 5 5 10 12 14 17 20 22 26 29 31 31 32 31 32
9 9 5 3 4 12 7 5 8 7 3 4 4 5 7 8 5 6 7 7 8 9 9 7 5 5 6 8 8 9 11 12 12 12 15 18 20 23 25 27 29 29 29 29
4 9 7 12 9 3 8 7 10 1 4 5 4 7 9 7 8 8 8 9 9 13 13 8 8 9 9 9 11 13 13 12 14 13 16 19 21 21 23 25 26 28 28 29
4 4 3 1 7 11 8 11 5 6 9 7 7 6 6 9 9 10 8 8 7 13 15 13 10 11 16 10 11 14 16 15 18 21 21 19 20 23 23 24 26 28 28 27
6 9 7 6 6 10 11 9 13 13 9 8 10 8 10 9 10 10 8 8 9 14 14 14 13 12 16 15 17 16 16 19 22 23 24 22 22 22 25 26 29 31 33 33
7 9 8 14 8 13 13 9 8 10 11 14 12 8 11 10 14 8 9 12 14 15 12 11 10 10 15 18 21 20 16 15 17 22 26 25 23 23 24 26 28 28 30 31
Wind_Direction
13 63 118 233 182 164 198 242 281 264 237 235 233 260 264 205 208 223 225 227 230 229 236 232 226 225 224 222 218 216 216 215 216 218 223 230 237 239 240 241 247 251 270 280
21 70 240 208 135 29 326 315 306 288 135 197 296 278 261 198 216 211 214 222 228 232 225 230 228 225 225 222 217 217 220 220 223 226 230 235 243 243 243 243 247 244 254 262
144 293 339 76 44 37 303 248 312 257 316 229 311 300 330 115 221 208 225 225 225 224 226 225 224 223 221 218 217 220 222 223 227 228 229 234 238 242 241 238 240 241 250 254
208 321 114 90 69 122 308 208 307 317 25 298 11 283 312 332 293 225 232 220 228 220 221 221 219 223 221 222 222 223 224 225 228 227 229 234 238 238 245 245 247 249 247 250
266 39 28 348 205 175 229 46 42 24 58 14 353 45 273 348 323 291 241 228 231 225 216 221 216 222 226 226 225 225 225 226 229 228 230 235 238 244 247 248 247 242 244 250
255 358 68 146 88 30 86 99 43 57 79 23 288 114 289 275 249 300 308 284 236 218 217 224 226 228 228 228 227 226 225 227 229 229 230 234 237 240 240 241 243 244 246 249
351 304 336 93 112 29 61 47 337 351 11 225 338 46 246 265 259 239 289 294 294 240 216 215 211 213 221 224 225 225 225 227 229 229 231 234 238 240 242 243 243 245 248 252
156 318 167 17 153 162 88 131 146 271 284 283 316 241 247 227 286 267 261 265 288 282 236 229 223 218 220 223 227 226 224 225 227 229 232 234 237 240 243 246 246 247 250 255
145 277 59 44 46 57 166 92 165 108 18 14 265 287 303 299 352 282 273 295 299 290 244 234 227 226 225 224 227 227 225 228 228 229 231 235 237 238 240 244 247 249 252 253
198 44 3 52 77 31 94 157 42 14 288 284 283 276 239 306 342 4 13 299 297 295 289 271 245 236 233 232 231 229 230 229 230 230 231 234 237 239 242 243 244 246 250 251
144 118 242 56 193 181 115 214 54 117 139 205 301 267 214 217 223 242 250 251 267 292 292 287 278 267 251 242 235 232 228 228 228 230 232 233 236 238 240 242 244 247 248 247
191 138 204 214 45 158 176 184 153 125 217 165 155 270 241 227 248 270 273 270 270 277 281 294 296 285 255 242 235 232 231 226 230 231 230 233 237 238 240 241 243 244 247 249
184 193 351 324 18 346 218 195 147 116 104 198 147 257 316 258 269 258 264 283 283 294 302 302 301 283 269 253 238 232 230 233 230 229 230 232 234 237 239 242 243 243 245 248
125 166 181 207 201 131 216 199 186 158 146 187 224 268 273 283 266 286 279 263 274 280 278 288 303 295 300 273 248 236 232 232 230 230 231 232 233 235 238 242 243 243 244 246
158 226 197 255 203 189 243 199 187 204 216 200 260 244 260 252 249 244 255 275 283 277 285 296 307 308 314 301 258 245 241 233 228 227 231 234 236 238 239 241 242 242 243 245
20 268 155 282 232 206 224 263 217 220 241 252 264 271 271 272 265 260 256 270 265 270 284 307 299 306 312 310 275 243 239 237 232 232 235 239 238 239 239 240 240 239 240 242
158 152 106 263 322 359 277 243 235 196 215 220 233 251 276 278 243 255 261 241 252 256 259 281 283 298 311 322 307 263 249 238 232 233 237 238 240 240 241 242 240 238 238 239
151 137 146 249 330 233 250 288 204 209 248 231 264 262 265 257 268 243 229 231 239 236 252 263 271 303 324 334 333 300 264 244 241 240 241 242 241 242 242 241 240 239 238 237
164 131 150 221 221 304 308 269 172 177 258 213 228 249 260 275 284 281 223 207 216 210 232 243 267 294 321 341 344 326 260 250 246 246 245 246 245 245 245 242 242 242 240 239
95 72 162 125 236 243 236 269 154 141 286 242 195 248 240 120 351 270 226 182 209 228 230 233 283 312 332 355 355 344 286 251 251 257 258 255 252 249 248 249 246 245 243 245
130 193 210 220 248 281 250 178 160 117 255 161 182 224 162 191 208 251 174 201 203 212 210 222 243 298 331 334 329 324 306 279 297 280 269 262 257 254 254 255 251 249 246 245
169 171 192 150 202 273 165 80 185 213 237 209 216 207 206 229 234 222 225 230 221 219 214 224 250 284 317 315 306 307 304 326 314 296 277 265 258 255 255 253 255 252 248 245
243 192 186 187 206 255 216 214 225 136 236 232 209 231 223 226 224 215 230 227 228 231 232 240 258 282 293 308 309 300 307 313 308 293 281 275 267 253 250 248 248 246 245 241
247 157 224 120 193 236 220 250 250 223 229 234 228 242 189 230 241 234 229 233 228 235 237 241 248 265 284 296 295 298 307 308 300 291 284 279 267 263 252 246 245 245 243 235
188 151 196 257 285 290 252 232 243 252 232 244 249 221 225 218 246 227 233 230 226 235 234 230 236 260 281 304 308 317 317 311 300 294 289 282 272 261 259 252 247 243 246 244
181 199 217 250 199 229 258 243 231 237 239 238 240 252 239 213 235 225 232 230 228 230 228 224 247 268 294 306 309 317 323 315 305 301 299 295 285 272 261 256 256 253 253 251
Height
847 858 862 855 857 857 860 864 868 862 856 861 863 855 842 848 857 857 858 858 856 853 850 854 858 861 864 866 869 871 872 874 875 876 876 877 877 878 880 881 882 882 883 882
857 862 853 851 853 856 858 864 869 861 856 862 858 842 832 841 842 841 843 849 848 849 849 849 852 856 859 861 864 866 868 870 871 872 873 874 874 875 876 878 878 879 880 880
859 854 849 851 857 860 861 865 866 868 862 860 863 842 827 832 835 837 839 838 841 842 844 844 846 847 852 855 857 860 862 864 866 868 870 871 872 872 873 874 874 876 877 877
855 851 852 855 858 863 865 862 863 865 872 875 866 865 834 829 831 835 836 837 833 834 835 837 840 842 844 845 851 854 857 859 862 865 866 867 867 868 869 871 872 873 874 874
855 855 855 857 858 858 863 861 865 866 875 877 870 879 841 832 817 814 821 827 826 826 829 830 831 833 835 841 844 848 851 854 857 859 860 862 863 865 867 869 870 871 871 871
855 854 856 856 859 859 861 864 874 882 885 882 870 875 850 829 812 815 811 816 820 821 821 822 823 828 830 834 838 842 846 848 851 853 855 856 858 860 862 864 865 867 868 868
858 858 858 857 860 861 865 877 886 875 885 874 873 878 842 818 816 816 816 814 812 814 815 816 819 822 824 825 829 833 838 840 845 847 849 851 853 856 857 858 860 862 863 864
869 868 860 859 860 862 869 873 890 871 888 885 877 870 829 816 814 815 814 813 810 809 812 813 813 813 815 819 822 825 828 831 835 839 842 845 847 850 852 854 855 857 858 860
869 863 863 863 863 866 871 877 877 891 900 899 878 855 823 812 808 810 811 809 808 805 804 803 803 804 805 808 811 814 819 823 826 830 835 838 842 844 845 849 851 853 854 855
853 862 867 867 866 871 869 876 880 895 887 875 876 868 846 811 806 809 807 808 807 803 802 800 798 797 797 799 800 805 810 812 817 822 826 830 834 837 841 844 845 847 849 851
853 858 868 865 869 871 878 879 889 892 898 891 891 861 827 815 802 801 803 804 804 802 799 795 793 793 794 795 797 797 799 804 808 813 818 822 826 830 834 837 839 842 843 844
848 865 870 863 864 864 865 869 877 895 880 909 925 871 812 813 810 807 806 803 801 800 796 792 789 786 786 786 789 791 794 794 798 803 809 814 819 823 827 830 832 836 838 840
848 862 871 860 865 864 863 866 870 884 893 896 896 849 811 811 810 807 806 801 798 794 792 789 784 781 779 778 779 781 785 787 791 796 801 806 810 814 818 821 826 829 831 833
839 858 852 862 844 854 860 862 868 863 895 875 860 815 808 801 804 801 801 798 794 790 787 783 781 777 775 772 773 774 775 779 784 789 793 797 800 803 807 812 817 821 824 826
846 852 855 846 843 848 845 847 863 866 845 847 808 831 798 800 800 797 793 792 791 787 783 781 780 777 774 771 770 772 773 774 776 779 786 788 792 796 799 803 807 812 816 819
853 851 855 848 840 851 851 828 838 843 835 840 822 816 777 788 792 793 791 790 787 783 782 781 777 774 771 767 764 765 767 771 775 777 778 782 786 789 792 795 799 803 806 810
851 855 863 858 846 842 849 818 814 828 826 813 819 788 777 783 788 783 781 781 779 778 778 776 774 771 769 766 765 762 763 767 768 768 770 773 778 781 784 787 790 793 796 800
849 854 871 868 846 852 803 796 796 805 795 795 800 783 776 776 773 775 772 771 771 772 772 770 769 768 766 764 761 762 764 765 767 767 768 769 772 774 776 779 781 783 786 789
835 851 862 863 860 826 803 787 798 799 787 781 781 773 771 774 775 768 761 762 764 766 765 765 765 764 763 761 760 757 759 762 765 763 763 764 766 768 771 771 773 776 778 780
841 842 847 882 860 834 799 784 786 788 789 765 774 773 775 779 783 771 757 759 763 763 764 764 765 765 763 760 758 757 756 758 758 760 760 760 761 763 764 766 767 768 771 773
851 857 841 840 843 818 791 782 787 800 782 761 766 767 775 777 768 760 758 759 759 761 761 762 762 761 761 760 758 756 755 754 754 754 755 756 756 757 759 760 762 763 764 766
825 839 851 849 850 814 776 785 788 768 759 757 762 761 766 763 758 759 759 759 757 757 757 758 759 759 759 759 758 755 754 753 752 751 752 751 750 750 752 755 757 758 759 759
811 789 806 805 790 768 772 760 757 758 758 755 756 755 758 759 757 754 754 754 753 754 755 756 756 756 756 756 755 754 752 751 748 746 745 746 746 743 744 746 748 751 753 754
789 786 789 785 768 768 764 758 757 755 754 750 751 750 754 755 751 749 750 749 749 751 751 752 752 751 749 750 750 749 748 748 745 742 739 739 739 741 739 738 740 741 745 747
769 778 776 773 765 760 755 754 747 744 746 748 745 745 746 747 745 745 744 743 744 746 746 746 747 747 745 745 745 745 744 744 741 739 735 733 732 731 732 732 731 731 730 734
762 759 761 741 747 740 736 737 737 739 739 736 736 738 737 739 737 735 737 735 736 738 740 741 742 743 743 744 741 739 739 737 734 732 731 730 728 726 724 723 723 724 725 725